Theta_e
303 301 303 303 303 303 302 305 314 326 331 333 332 331 331 330 329 330 329 325 323 320 320 315 308 306 304 301 297 293 292 291 290 291 291 292 291 290 291 291 291 292 292
298 299 301 302 302 304 303 302 306 319 330 332 333 331 331 331 331 329 327 325 323 320 319 315 310 306 301 296 295 294 291 290 290 290 289 289 290 290 291 291 292 291 291
299 300 298 300 300 301 303 305 304 307 322 332 331 321 322 320 321 321 323 323 323 321 320 316 312 305 304 300 297 295 294 290 288 288 291 287 288 286 287 288 288 288 288
296 297 298 298 298 300 301 303 304 305 309 321 325 328 326 323 325 327 328 321 320 320 319 316 310 308 305 303 303 301 298 293 289 289 289 288 289 286 283 285 286 285 286
293 295 296 297 299 299 298 299 300 302 305 310 324 327 326 323 322 324 324 311 313 318 314 311 309 307 306 305 302 301 300 296 292 289 288 286 285 286 284 282 283 285 285
293 294 294 295 296 296 296 297 298 299 302 306 312 321 325 315 314 313 317 311 310 312 311 310 309 308 304 301 302 302 300 296 295 293 290 288 287 285 283 281 280 281 283
294 296 293 293 296 297 297 298 298 299 300 302 306 313 317 316 316 316 316 312 308 306 306 306 304 304 304 303 300 298 295 294 293 292 288 286 287 284 284 282 280 280 281
294 295 295 296 297 298 300 300 300 301 302 301 302 308 313 317 318 315 314 313 312 312 307 304 303 303 302 299 296 294 293 292 291 289 288 288 287 286 285 283 281 278 278
296 296 295 298 299 299 299 299 300 301 302 302 303 308 311 312 313 311 308 307 304 304 303 302 301 298 296 295 293 292 291 291 291 289 289 287 287 286 284 283 282 281 277
297 297 296 295 297 299 299 299 301 301 302 302 305 307 307 308 306 303 301 301 301 302 302 300 299 296 294 293 292 290 290 289 289 290 288 286 286 285 284 283 282 282 280
298 297 298 297 297 299 299 299 302 303 303 305 303 301 299 299 300 300 300 301 299 300 300 298 296 294 292 292 290 290 289 288 287 287 286 286 286 285 284 283 282 282 279
297 297 297 295 296 298 299 302 303 303 303 300 298 297 297 298 297 297 298 300 298 298 296 295 293 292 291 290 289 288 288 287 287 286 286 286 286 285 284 284 282 281 280
299 303 299 297 298 297 299 296 295 295 295 296 295 295 295 297 299 299 297 297 296 294 294 292 290 289 289 289 289 288 288 288 287 287 286 286 286 285 284 283 280 280 282
300 301 299 297 295 294 293 292 293 295 295 295 296 296 296 297 296 295 295 295 292 291 290 291 291 290 290 290 289 288 288 287 288 288 287 285 285 284 283 281 281 281 279
293 295 295 292 290 289 289 291 292 293 294 293 293 293 293 293 292 291 291 291 291 290 289 289 288 289 289 289 288 288 287 286 286 285 284 284 285 288 287 284 281 280 279
292 295 289 287 286 286 287 289 290 290 292 292 290 291 290 290 290 289 290 290 289 289 289 288 288 289 290 292 291 287 285 284 283 283 282 282 283 285 287 288 289 287 281
288 286 286 285 285 286 288 287 288 289 289 289 289 289 289 289 289 289 289 288 288 288 287 288 288 288 288 291 290 288 284 283 280 280 280 281 283 282 281 284 287 287 288
286 286 286 286 287 289 289 290 290 289 289 289 289 289 289 289 289 288 288 288 288 287 286 286 285 285 288 290 290 287 282 281 281 280 279 279 279 281 283 282 281 282 281
287 287 287 287 287 287 288 289 288 289 289 288 289 289 289 288 288 286 285 285 285 285 285 285 285 285 286 289 289 285 281 280 279 280 279 280 280 284 287 283 280 281 280
287 287 288 288 288 288 289 288 288 288 287 288 288 289 289 287 286 285 285 285 285 285 285 284 283 285 281 287 286 285 279 277 279 279 280 283 283 286 287 284 280 276 277
289 289 289 288 289 289 289 287 286 285 287 288 288 288 287 286 285 285 285 284 284 282 280 278 277 278 281 280 287 287 280 280 280 279 278 279 285 286 286 286 278 278 281
288 288 288 288 289 289 288 286 285 287 287 287 286 286 287 288 286 285 283 280 278 277 276 275 275 276 276 283 284 285 285 284 280 279 278 279 285 285 284 282 283 284 283
287 287 287 287 288 289 288 285 287 288 287 286 286 285 285 283 280 278 277 275 275 275 275 274 274 275 277 276 283 284 285 284 281 280 282 283 283 282 279 281 283 282 275
288 289 287 287 286 288 288 287 287 287 285 282 279 279 278 277 277 277 277 275 274 273 274 274 274 273 275 276 277 279 278 282 281 280 276 279 279 279 279 277 277 276 276
287 283 284 284 284 286 285 285 282 280 279 278 278 277 276 276 275 276 275 275 274 275 274 274 275 274 274 278 282 282 280 279 280 278 274 273 273 273 274 274 275 275 275
282 282 283 283 282 281 280 280 281 280 278 277 276 276 275 274 275 275 275 284 283 284 283 283 280 278 281 283 283 283 283 282 282 275 272 271 272 272 273 273 273 273 274
Wind_Speed
14 7 8 8 8 8 7 9 8 10 10 9 9 7 10 9 7 8 12 10 10 9 9 6 7 7 9 9 7 4 4 2 2 4 2 2 1 2 2 2 2 3 3
9 8 9 8 8 10 8 8 9 9 11 10 11 7 8 9 11 8 9 10 11 11 11 11 10 11 7 7 7 6 4 2 3 4 2 1 2 1 1 2 3 3 3
16 14 8 10 8 9 10 8 8 9 9 13 7 3 3 3 3 3 5 8 10 11 11 11 10 11 10 9 9 7 7 4 1 2 4 2 4 1 2 2 1 3 2
10 9 8 8 9 11 8 8 7 7 8 9 8 12 11 10 8 10 11 7 11 13 11 10 8 9 6 7 7 4 4 5 5 2 1 3 2 4 1 1 1 2 4
7 10 9 9 8 7 7 6 7 7 8 7 11 11 12 5 3 5 10 5 5 11 9 8 7 8 7 7 8 8 6 4 4 4 3 2 2 3 3 2 1 1 1
11 11 8 7 8 6 7 7 7 8 8 8 9 11 13 7 6 4 8 7 6 6 9 11 10 9 7 9 8 6 6 4 4 3 3 3 3 3 3 2 1 1 3
12 13 13 10 10 8 3 3 3 6 5 7 7 9 9 10 12 12 9 10 7 6 10 11 10 9 8 8 7 7 6 4 3 5 2 2 2 4 3 3 2 1 2
8 8 9 8 8 8 9 7 4 6 5 5 7 7 7 8 9 9 8 9 11 9 10 8 9 9 9 8 7 5 5 7 4 7 5 3 3 1 1 4 4 1 2
9 9 8 8 9 8 8 8 8 8 8 7 4 7 7 8 10 10 6 4 6 8 10 12 11 9 10 10 9 6 6 6 6 5 5 3 3 2 1 2 3 5 2
8 8 7 8 7 7 7 8 7 9 8 8 6 5 7 6 4 5 7 9 8 12 11 11 11 11 10 10 10 7 7 7 4 4 5 2 4 3 2 2 2 3 4
8 8 8 8 8 6 6 8 7 8 9 7 3 4 5 6 6 6 7 9 11 11 12 11 12 12 11 10 10 8 7 7 5 4 4 2 4 2 3 2 2 2 3
8 7 8 8 8 7 7 7 8 7 6 2 4 5 5 7 8 7 7 9 11 9 11 12 13 12 11 10 11 9 7 7 5 4 2 3 3 2 2 1 3 3 3
8 11 6 8 10 7 5 6 6 5 4 5 6 6 5 7 9 9 9 10 12 12 11 12 12 12 11 11 10 9 8 7 6 4 3 2 2 4 3 3 4 3 3
12 12 8 9 8 5 6 6 5 3 5 6 8 7 6 7 8 11 11 10 12 14 14 13 13 13 11 10 9 8 6 5 4 2 0 2 3 4 4 3 5 4 3
15 12 7 7 6 7 6 5 6 6 6 9 11 8 8 9 10 11 12 14 12 13 15 16 14 12 11 8 8 8 6 4 1 3 0 1 4 5 6 3 5 4 3
15 6 7 7 7 7 6 7 7 8 7 11 12 10 11 12 12 13 13 15 14 14 15 14 12 10 7 14 12 9 5 2 2 2 3 3 3 5 9 10 12 10 4
11 10 7 5 4 6 5 8 9 10 12 13 12 13 13 12 13 13 14 14 14 14 13 11 10 9 8 10 10 9 4 3 1 1 1 3 4 6 5 9 12 11 14
9 8 6 5 5 6 7 8 9 10 10 12 13 11 12 11 12 14 14 12 11 11 9 7 6 6 4 8 9 9 5 3 1 3 3 3 5 5 8 6 6 6 5
5 6 6 6 6 6 5 7 8 9 9 10 10 10 10 11 12 13 13 10 8 8 6 7 4 4 2 6 7 6 3 1 3 2 2 4 5 10 14 7 5 6 5
6 6 7 7 7 6 5 8 9 10 9 9 10 9 9 10 11 10 9 7 7 6 4 4 4 4 2 2 2 5 3 1 2 2 4 8 9 13 15 8 4 4 6
6 7 8 7 7 7 8 10 10 10 8 8 10 10 9 10 10 9 8 8 5 5 5 6 5 6 6 6 8 9 3 1 1 3 3 3 13 14 15 16 3 6 10
6 6 5 6 6 7 8 8 9 6 9 8 10 8 8 7 7 7 4 5 6 6 5 5 4 4 5 8 7 7 7 8 2 4 4 5 13 16 16 12 15 16 11
5 5 5 6 5 7 6 9 6 7 9 9 8 7 7 5 4 5 5 5 5 5 4 4 4 3 3 3 7 7 9 10 5 3 8 13 15 15 10 13 14 12 4
6 6 6 7 7 7 8 7 7 7 7 7 6 5 6 6 5 4 4 5 4 4 4 3 3 1 2 3 3 3 4 8 5 5 4 8 10 10 9 8 6 4 5
5 4 6 6 7 6 6 5 5 6 7 6 5 6 5 5 5 5 4 4 1 4 3 2 2 1 3 3 7 8 5 3 7 5 3 3 4 5 5 5 5 5 5
5 4 5 7 6 6 6 5 5 6 7 6 4 4 4 4 4 4 4 10 10 10 7 5 1 1 4 9 10 13 12 11 11 3 3 3 4 5 5 6 7 5 8
Wind_Direction
264 239 247 232 237 265 219 211 193 202 190 185 187 198 198 203 210 205 209 196 184 178 177 181 160 167 166 175 160 133 146 101 131 100 33 11 34 154 180 179 183 177 172
261 251 245 244 221 236 250 211 213 196 198 196 201 201 187 207 209 206 200 198 186 172 176 181 181 175 149 154 165 157 129 111 167 137 104 181 319 337 134 161 183 174 150
262 262 244 242 242 228 239 243 212 207 205 202 193 86 59 46 132 181 206 203 191 183 187 194 180 176 172 182 179 165 148 145 150 212 147 117 220 143 1 9 64 132 121
274 270 262 255 239 243 235 234 238 219 211 200 185 202 199 191 198 192 202 191 171 180 183 187 184 181 173 174 176 180 158 135 162 130 141 52 136 166 201 1 125 106 148
299 297 283 257 250 239 229 224 234 227 234 223 195 200 213 211 189 190 187 142 166 169 168 167 167 174 173 168 172 170 178 155 144 145 154 122 67 54 119 199 290 351 227
9 358 322 319 290 255 250 234 216 229 215 200 207 212 211 175 156 159 174 174 167 172 172 167 174 177 163 163 167 166 172 167 138 139 145 159 185 157 147 140 173 205 297
11 2 355 340 337 325 290 261 240 269 249 217 216 203 214 185 189 185 187 171 175 179 184 169 162 166 165 156 145 152 146 140 130 121 116 118 117 118 120 107 123 176 294
357 356 340 335 324 320 321 323 303 277 261 236 229 227 206 199 202 193 182 191 189 184 159 150 143 145 146 141 136 124 125 123 113 114 98 83 81 30 135 146 137 100 294
338 330 318 310 296 288 296 307 310 298 295 288 260 218 199 193 198 187 170 158 136 145 147 143 143 141 134 134 125 121 113 107 116 118 123 126 91 70 96 118 131 149 221
326 316 303 299 289 282 294 302 294 284 282 284 257 217 190 185 157 141 142 139 136 139 144 138 143 137 128 127 120 113 112 112 102 115 106 148 121 148 184 150 143 159 171
323 318 321 305 288 283 284 288 290 288 283 279 233 162 135 120 116 124 129 133 129 142 141 143 138 134 127 124 117 113 115 110 107 97 148 144 109 166 205 169 168 180 171
312 314 312 313 299 281 292 308 333 334 330 338 84 89 100 106 104 108 117 130 127 134 138 136 126 123 118 118 116 115 109 108 122 142 108 96 183 207 235 213 218 223 206
314 309 311 305 302 295 324 12 358 1 30 75 80 77 82 101 113 115 114 123 122 120 120 115 112 108 103 97 89 91 85 85 90 79 112 243 22 260 234 229 249 236 253
327 319 313 315 317 16 26 32 24 18 47 67 81 74 84 98 115 117 116 122 118 114 108 102 100 95 93 91 91 96 104 102 104 99 84 221 228 236 243 235 249 247 252
327 318 333 344 9 31 36 42 31 33 66 80 80 78 92 98 98 97 100 100 94 97 97 96 91 92 94 96 97 96 92 69 48 210 327 304 303 292 268 233 245 240 246
333 18 30 19 22 31 22 41 47 41 52 69 67 73 77 86 88 90 90 89 89 87 90 90 91 88 98 111 108 99 97 98 320 319 7 353 35 2 340 321 307 290 266
360 13 23 20 39 60 58 62 66 78 70 65 67 70 68 69 81 84 82 81 85 86 87 88 92 93 96 117 120 126 155 145 231 74 6 345 6 352 314 307 302 299 292
14 23 23 27 39 74 84 85 79 79 83 90 91 86 95 95 88 89 85 81 85 90 94 90 82 97 114 161 151 138 114 122 46 14 16 331 307 307 297 272 265 270 272
40 39 31 34 51 57 77 90 86 86 88 92 96 105 111 112 110 98 95 88 94 90 84 95 126 178 124 126 145 116 118 107 3 346 320 289 300 301 303 294 277 276 280
48 61 54 53 47 41 58 73 74 76 69 68 71 77 90 92 87 92 90 79 83 101 129 125 115 138 137 272 80 116 93 42 304 323 308 311 313 313 308 312 302 305 286
71 69 65 61 55 56 68 69 75 72 70 77 85 78 69 78 78 85 87 92 98 85 81 84 67 60 52 25 45 71 100 319 325 291 285 279 315 311 321 321 348 294 292
75 75 76 58 71 78 87 78 78 81 78 72 80 76 79 82 85 89 93 86 92 97 98 99 77 50 33 34 24 22 1 342 329 292 283 283 312 329 325 324 311 309 335
92 85 86 76 57 82 91 95 78 86 92 89 84 84 87 84 84 102 102 94 95 99 88 75 61 35 16 9 9 4 349 339 329 300 325 343 334 329 331 317 322 333 318
121 117 105 92 86 90 97 95 102 106 104 95 86 86 90 80 68 66 70 78 72 73 80 86 82 38 352 340 322 299 318 325 345 2 356 339 341 337 328 332 318 303 296
127 125 117 108 107 111 106 112 110 101 92 88 84 73 68 77 74 64 89 88 112 135 131 150 146 77 354 305 351 349 338 344 332 23 8 346 338 327 319 312 301 301 301
127 116 111 113 108 106 107 106 107 111 110 97 88 96 90 76 81 95 56 65 74 68 65 62 63 22 346 347 345 348 340 350 337 16 341 321 307 304 307 310 310 309 310